COSMOS 1020

Satellite information

Favourite Embed

Satellite Type and Status

PAYLOADIN ORBIT

Key statistics

Satellite COSMOS 1020 at a glance.

Uptime

17261

Days in orbit

Revolutions

≈ 12.5

Per day

Orbit

LEO

Low Earth Orbit

Inclination

74.0

Latest

Satellite identification and parameters

Extended collection of information and parameters for COSMOS 1020.

Object identification

Identified? True

Debris? False

Object name: COSMOS 1020

International designator: 1978-056H

Object number (NORAD): 10937

Object ID (CCSDS): 10937

Country: COMMONWEALTH OF INDEPENDENT STATES (CIS)

Current information (Y/N): Y

RCS size: MEDIUM

Orbital parameters

Period: 114.782 minutes

Inclination: 74.027 deg

SMA: 7823.649 km

Apoapsis: 1484.419 km

Periapsis: 1406.609 km

RAAN: 143.7419 deg

Eccentricy: 0.00497271

Argument of periapsis: 238.3409 deg

Mean anomaly: 121.2789 deg

Mean motion: 12.54552201 rev/day

Mean motion (dot): 0.00000004 rev/day2

B* drag term: 0.00012271988 1/REarth

Two-line elements (TLE)

Creation date: Sept. 8, 2025, 6:18 p.m.

Reference frame: TEME

Reference center: EARTH

Epoch: Sept. 8, 2025, 9:49 a.m. UTC

TLE line 0: 0 COSMOS 1020

TLE line 1: 1 10937U 78056H 25251.40912745 .00000004 00000-0 12272-3 0 9994

TLE line 2: 2 10937 74.0270 143.7419 0049727 238.3409 121.2789 12.54552201164085

Live tracking on map

Real-time ground track for satellite COSMOS 1020.

In-orbit conjunctions

There are no conjunctions computed for COSMOS 1020, at the moment. Check back to stay up to date, as we update our databases every day.

Go to all conjunctions

Associated space launch

Military communications satellites

COSMOS 1020 was lifted into orbit during the mission ‘Kosmos-3M | Strela-1M 145-152’, on board a Kosmos-3M space rocket.

The launch took place on June 7, 1978, 10 p.m. from 132/1 (132L).

For more information about the launch, click the button.

Launch to space Kosmos-3M | Strela-1M 145-152
Kosmos-3M | Strela-1M 145-152

Agency: N/A

Status: Launch Successful

Launch date: June 7, 1978, 10 p.m. UTC

Rocket: Kosmos-3M

Launch pad: 132/1 (132L)

Location: Plesetsk Cosmodrome, Russian Federation

...

Latest news about this satellite

There are no fresh news available about this satellite. Check back as we update our databases every day.


Newsletter sign-up

Weekly statistics, charts and insights to help you stay on top of the space industry.